Free Severe Weather Alerts by Email and Text Message   

 
Follow iAlert.com on twitter @ialertcom
Search For Active Alerts in Your Area  
  Hi Guest:  [ Sign-up / Services ] [ Login ]

Current weather by "City, St" or "zip code"  

 

Advertise Here

Hazardous Weather Conditions

No active alerts for PHOENIX, ARIZONA

Current Conditions: PHOENIX, ARIZONA

Fair


102.0 F

Last Updated on Jun 25 2017, 9:53 am MST
Humidity: 19%
Wind Speed: SE 15.0 mph
Barometer 29.89 in
Dewpoint: 53.1 F
Visibility: 10.00 mi
Precip: --
Heat Index: 100 F
Wind Chill: NA
Current conditions at:

Phoenix, Phoenix-Deer Valley Municipal Airport, AZ (KDVT)

Lat: 33.69 Lon: -112.06

Local Radar Image active severe weather and emergency alerts image image weather storm and storm spotter reports image weather observation monitoring service image
Local
Radar
Active
Alerts
Storm Reports Weather
Monitoring

Weather Alert Notification Services


ialert severe weather and emergency alerts by text message and email ialert daily weather forecast by email and text message service ialert real-time weather-observation monitoring and alert notification service ialert storm report monitoring alert notification

Observation History for PHOENIX, ARIZONA


Time Wind
(mph)
Vis
(mi)
Weather Precip (in) Temperature (F) Relative
Humidity
Wind
Chill
(°F)
Heat
Index
(°F)
Pressure
Air Dwpt altimeter
(in)
sea level
(mb)
9:53 am MST SE 15.0 10.00 Fair -- 102.0 53.1 19% NA 100 29.89 1008.9
8:53 am MST SE 15.0 G 23.0 10.00 Fair -- 101.0 52.0 19% NA 98 29.89 1008.8
7:53 am MST S 9.2 10.00 Fair -- 98.0 52.0 21% NA 95 29.88 1008.7
6:53 am MST N 3.5 10.00 Fair -- 95.0 52.0 23% NA 92 29.86 1007.9
5:53 am MST N 0.0 10.00 Fair -- 92.0 52.0 26% NA 89 29.85 1007.5
4:53 am MST SE 12.7 10.00 Fair -- 95.0 51.1 23% NA 92 29.81 1006.2
3:53 am MST SE 12.7 10.00 Fair -- 96.0 50.0 21% NA 93 29.80 1005.9
2:53 am MST SE 9.2 10.00 Fair -- 97.0 44.1 16% NA 93 29.79 1005.5
1:53 am MST S 6.9 10.00 A Few Clouds -- 97.0 42.1 15% NA 93 29.76 1004.4
12:53 am MST N 0.0 10.00 Fair -- 97.0 42.1 15% NA 93 29.74 1003.9
11:53 pm MST S 4.6 10.00 Fair -- 99.0 37.9 12% NA 94 29.75 1004.0
10:53 pm MST S 4.6 10.00 Fair -- 100.0 39.0 12% NA 95 29.75 1004.1
9:53 pm MST N 0.0 10.00 Fair -- 99.0 39.0 13% NA 94 29.73 1003.7
8:53 pm MST N 0.0 10.00 Fair -- 103.0 39.0 11% NA 98 29.71 1002.9
7:53 pm MST SW 10.4 10.00 Fair -- 107.0 37.0 9% NA 101 29.69 1002.3
6:53 pm MST SW 13.8 10.00 Fair -- 110.0 37.0 8% NA 104 29.68 1001.8
5:53 pm MST SW 15.0 10.00 Fair -- 112.0 39.9 9% NA 106 29.67 1001.6
4:53 pm MST W 12.7 G 20.7 10.00 Fair -- 112.0 39.9 9% NA 106 29.67 1001.7
3:53 pm MST 6.9 10.00 Fair -- 111.0 39.9 9% NA 105 29.70 1002.4
2:53 pm MST W 8.1 10.00 Fair -- 110.0 37.0 8% NA 104 29.72 1003.3
1:53 pm MST SW 11.5 G 17.3 10.00 Fair -- 110.0 41.0 10% NA 104 29.74 1004.1
12:53 pm MST SW 9.2 10.00 Fair -- 108.0 42.1 11% NA 103 29.77 1004.8
11:53 am MST S 5.8 10.00 Fair -- 104.0 45.0 13% NA 100 29.79 1005.5
10:53 am MST SE 6.9 10.00 Fair -- 102.0 46.9 15% NA 98 29.80 1005.9

Regional Weather Observation:


Glendale, Glendale Municipal Airport, AZ (KGEU)

Partly Cloudy
104.0 F

Luke Air Force Base / Phoenix, AZ (KLUF)

Fair
103.0 F

Phoenix, Phoenix Sky Harbor International Airport, AZ (KPHX)

Mostly Cloudy
104.0 F

Goodyear Municipal, AZ (KGYR)

Partly Cloudy
104.0 F

Buckeye Municipal Airport, AZ (KBXK)

Fair
100.0 F

Scottsdale Airport, AZ (KSDL)

Fair
103.0 F

Advertise Here


Advertise Here